Brainerd, MN

4:58 PM CST on December 10, 2016 (GMT -0600)
Brainerd-Crow Wing County Regional

Weather History for KBRD - November, 2011

Change the Weather History Date:

Sunday, November 13, 2011

  Actual Average Record
Temperature  
Mean Temperature 36 °F -  
Max Temperature 43 °F 36 °F 66 °F (1999)
Min Temperature 30 °F 19 °F -6 °F (1986)
Degree Days  
Heating Degree Days 28    
Moisture  
Dew Point 27 °F    
Average Humidity 69    
Maximum Humidity 79    
Minimum Humidity 60    
Precipitation  
Precipitation 0.00 in - - ()
Sea Level Pressure  
Sea Level Pressure 29.29 in    
Wind  
Wind Speed 8 mph (WSW)    
Max Wind Speed 13 mph    
Max Gust Speed -    
Visibility 10 miles    
Events      
Averages and records for this station are not official NWS values.
T = Trace of Precipitation, MM = Missing Value Source: NWS Daily Summary

Daily Weather History Graph

Daily Weather History Graph

Search for Another Location

Airport or City:

Trip Planner

Search our weather history database for the weather conditions in past years. The results will help you decide how hot, cold, wet, or windy it might be!

Date:

Astronomy

Nov. 13, 2011 Rise Set
Actual Time 7:14 AM CST 4:46 PM CST
Civil Twilight 6:42 AM CST 5:18 PM CST
Nautical Twilight 6:06 AM CST 5:54 PM CST
Astronomical Twilight 5:30 AM CST 6:30 PM CST
Moon 6:49 PM CST (11/13) 9:54 AM CST (11/13)
Length of Visible Light 10h 36m
Length of Day
9h 31m
Waning Gibbous, 92% of the Moon is Illuminated
Nov 13
Waning Gibbous
Nov 18
Last Quarter
Nov 25
New
Dec 2
First Quarter
Dec 10
Full

Hourly Weather History & Observations

Time (CST) Temp. Windchill Dew Point Humidity Pressure Visibility Wind Dir Wind Speed Gust Speed Precip Events Conditions
12:53 AM 43.0 °F 38.8 °F 33.1 °F 68% 29.14 in 10.0 mi SSW 6.9 mph - N/A   Clear
1:53 AM 42.1 °F 37.7 °F 32.0 °F 67% 29.14 in 10.0 mi SSW 6.9 mph - N/A   Clear
2:53 AM 37.0 °F 31.6 °F 30.0 °F 76% 29.15 in 10.0 mi SW 6.9 mph - N/A   Clear
3:53 AM 35.1 °F 28.6 °F 28.0 °F 76% 29.16 in 10.0 mi WSW 8.1 mph - N/A   Clear
4:53 AM 37.9 °F 32.7 °F 28.0 °F 68% 29.17 in 10.0 mi West 6.9 mph - N/A   Clear
5:53 AM 37.9 °F 32.7 °F 25.0 °F 60% 29.18 in 10.0 mi West 6.9 mph - N/A   Clear
6:53 AM 37.9 °F 31.5 °F 26.1 °F 62% 29.20 in 10.0 mi NW 9.2 mph - N/A   Clear
7:53 AM 36.0 °F 31.1 °F 25.0 °F 64% 29.23 in 10.0 mi West 5.8 mph - N/A   Clear
8:53 AM 37.0 °F 29.3 °F 26.1 °F 65% 29.25 in 10.0 mi WNW 11.5 mph - N/A   Clear
9:39 AM 35.6 °F 27.5 °F 26.6 °F 70% 29.26 in 10.0 mi NW 11.5 mph - N/A   Mostly Cloudy
9:53 AM 35.1 °F 27.9 °F 27.0 °F 72% 29.29 in 8.0 mi WNW 9.2 mph - N/A   Overcast
10:53 AM 37.0 °F 30.4 °F 27.0 °F 67% 29.29 in 8.0 mi NW 9.2 mph - N/A   Overcast
11:53 AM 37.0 °F 29.3 °F 27.0 °F 67% 29.30 in 9.0 mi West 11.5 mph - N/A   Overcast
12:03 PM 37.4 °F 30.8 °F 26.6 °F 65% 29.27 in 9.0 mi West 9.2 mph - N/A   Overcast
12:53 PM 37.9 °F 32.7 °F 27.0 °F 65% 29.29 in 9.0 mi West 6.9 mph - N/A   Overcast
1:53 PM 37.9 °F 30.0 °F 27.0 °F 65% 29.31 in 10.0 mi WSW 12.7 mph - N/A   Overcast
2:53 PM 37.9 °F 31.5 °F 27.0 °F 65% 29.33 in 10.0 mi WSW 9.2 mph - N/A   Overcast
3:53 PM 37.9 °F 31.5 °F 26.1 °F 62% 29.34 in 10.0 mi West 9.2 mph - N/A   Mostly Cloudy
4:53 PM 37.0 °F 29.3 °F 26.1 °F 65% 29.37 in 10.0 mi WSW 11.5 mph - N/A   Overcast
5:25 PM 35.6 °F 28.0 °F 26.6 °F 70% 29.35 in 10.0 mi WSW 10.4 mph - N/A   Mostly Cloudy
5:53 PM 34.0 °F 28.8 °F 25.0 °F 70% 29.39 in 10.0 mi SW 5.8 mph - N/A   Scattered Clouds
6:53 PM 32.0 °F 28.7 °F 25.0 °F 75% 29.40 in 9.0 mi South 3.5 mph - N/A   Clear
7:53 PM 30.9 °F 27.5 °F 24.1 °F 76% 29.40 in 9.0 mi SSE 3.5 mph - N/A   Clear
8:53 PM 30.0 °F - 24.1 °F 79% 29.41 in 8.0 mi Calm Calm - N/A   Clear
9:53 PM 32.0 °F 24.8 °F 26.1 °F 79% 29.41 in 9.0 mi South 8.1 mph - N/A   Clear
10:53 PM 35.1 °F 29.3 °F 27.0 °F 72% 29.40 in 9.0 mi SSW 6.9 mph - N/A   Clear
11:53 PM 34.0 °F 27.2 °F 27.0 °F 75% 29.41 in 9.0 mi SSW 8.1 mph - N/A   Clear